Weather History for Ardmore Downtown, OK

Change the Weather History Date:

Friday, March 21, 2014

  Actual Average (KADM) Record (KADM)
Temperature  
Mean Temperature 64 °F -  
Max Temperature 77 °F 63 °F 91 °F (1997)
Min Temperature 50 °F 44 °F 32 °F (1998)
Degree Days  
Heating Degree Days 2    
Growing Degree Days 14 (Base 50)    
Moisture  
Dew Point 42 °F    
Average Humidity 46    
Maximum Humidity 62    
Minimum Humidity 28    
Precipitation  
Precipitation 0.00 in - - ()
Sea Level Pressure  
Sea Level Pressure 29.87 in    
Wind  
Wind Speed 5 mph (SW)    
Max Wind Speed 15 mph    
Max Gust Speed 23 mph    
Visibility 10 miles    
Events      
Averages and records for this station are not official NWS values.
T = Trace of Precipitation, MM = Missing Value Source: NWS Daily Summary

Daily Weather History Graph

Daily Weather History Graph

Search for Another Location

Airport:

Trip Planner

Search our weather history database for the weather conditions in past years. The results will help you decide how hot, cold, wet, or windy it might be!

Date:

Astronomy

Mar. 21, 2014 Rise Set
Actual Time 7:30 AM CDT 7:40 PM CDT
Civil Twilight 7:05 AM CDT 8:05 PM CDT
Nautical Twilight 6:36 AM CDT 8:35 PM CDT
Astronomical Twilight 6:07 AM CDT 9:04 PM CDT
Moon No Moon Rise 10:35 AM CDT (3/21)
Length of Visible Light 13h 00m
Length of Day
12h 10m
Waning Gibbous, 75% of the Moon is Illuminated
Mar 21
Waning Gibbous
Mar 23
Last Quarter
Mar 30
New
Apr 7
First Quarter
Apr 15
Full

Hourly Weather History & Observations

Time (CDT) Temp. Dew Point Humidity Pressure Visibility Wind Dir Wind Speed Gust Speed Precip Events Conditions
12:15 AM 50.0 °F 33.8 °F 54% 29.98 in 10.0 mi South 3.5 mph - N/A   Unknown
12:35 AM 50.0 °F 33.8 °F 54% 29.97 in 10.0 mi South 4.6 mph - N/A   Unknown
12:55 AM 50.0 °F 33.8 °F 54% 29.97 in 10.0 mi South 4.6 mph - N/A   Unknown
1:15 AM 50.0 °F 33.8 °F 54% 29.96 in 10.0 mi South 5.8 mph - N/A   Unknown
1:35 AM 50.0 °F 33.8 °F 54% 29.95 in 10.0 mi South 4.6 mph - N/A   Unknown
1:55 AM 50.0 °F 33.8 °F 54% 29.94 in 10.0 mi Calm Calm - N/A   Unknown
2:15 AM 50.0 °F 33.8 °F 54% 29.94 in 10.0 mi South 3.5 mph - N/A   Unknown
2:35 AM 50.0 °F 32.0 °F 50% 29.93 in 10.0 mi South 3.5 mph - N/A   Unknown
2:55 AM 50.0 °F 32.0 °F 50% 29.92 in 10.0 mi Calm Calm - N/A   Unknown
3:15 AM 51.8 °F 32.0 °F 47% 29.91 in 10.0 mi South 4.6 mph - N/A   Unknown
3:35 AM 51.8 °F 32.0 °F 47% 29.90 in 10.0 mi South 4.6 mph - N/A   Unknown
3:55 AM 51.8 °F 32.0 °F 47% 29.90 in 10.0 mi South 4.6 mph - N/A   Unknown
4:15 AM 53.6 °F 32.0 °F 44% 29.90 in 10.0 mi South 6.9 mph - N/A   Unknown
4:35 AM 55.4 °F 33.8 °F 44% 29.89 in 10.0 mi South 5.8 mph - N/A   Unknown
4:55 AM 53.6 °F 35.6 °F 51% 29.88 in 10.0 mi South 5.8 mph - N/A   Unknown
5:15 AM 53.6 °F 33.8 °F 47% 29.88 in 10.0 mi South 3.5 mph - N/A   Unknown
5:35 AM 51.8 °F 35.6 °F 54% 29.88 in 10.0 mi South 3.5 mph - N/A   Unknown
5:55 AM 51.8 °F 35.6 °F 54% 29.87 in 10.0 mi South 3.5 mph - N/A   Unknown
6:15 AM 51.8 °F 35.6 °F 54% 29.88 in 10.0 mi SSW 4.6 mph - N/A   Unknown
6:35 AM 51.8 °F 35.6 °F 54% 29.88 in 10.0 mi Calm Calm - N/A   Unknown
6:55 AM 51.8 °F 35.6 °F 54% 29.88 in 10.0 mi Calm Calm - N/A   Unknown
7:15 AM 50.0 °F 35.6 °F 58% 29.88 in 10.0 mi South 3.5 mph - N/A   Unknown
7:35 AM 50.0 °F 37.4 °F 62% 29.88 in 10.0 mi Calm Calm - N/A   Unknown
7:55 AM 50.0 °F 37.4 °F 62% 29.88 in 10.0 mi Calm Calm - N/A   Unknown
8:15 AM 50.0 °F 37.4 °F 62% 29.89 in 10.0 mi South 3.5 mph - N/A   Unknown
8:35 AM 53.6 °F 39.2 °F 58% 29.89 in 10.0 mi SSW 3.5 mph - N/A   Unknown
8:55 AM 55.4 °F 39.2 °F 54% 29.89 in 10.0 mi SSW 4.6 mph - N/A   Unknown
9:15 AM 55.4 °F 39.2 °F 54% 29.88 in 10.0 mi SSW 8.1 mph - N/A   Unknown
9:35 AM 59.0 °F 41.0 °F 51% 29.89 in 10.0 mi South 5.8 mph - N/A   Unknown
9:55 AM 60.8 °F 42.8 °F 52% 29.89 in 10.0 mi SSW 10.4 mph 16.1 mph N/A   Unknown
10:15 AM 64.4 °F 44.6 °F 49% 29.89 in 10.0 mi SSW 15.0 mph 19.6 mph N/A   Unknown
10:35 AM 66.2 °F 46.4 °F 49% 29.88 in 10.0 mi SSW 11.5 mph 20.7 mph N/A   Unknown
10:55 AM 68.0 °F 46.4 °F 46% 29.89 in 10.0 mi SSW 10.4 mph 17.3 mph N/A   Unknown
11:15 AM 68.0 °F 48.2 °F 49% 29.87 in 10.0 mi SSW 12.7 mph 17.3 mph N/A   Unknown
11:35 AM 69.8 °F 48.2 °F 46% 29.87 in 10.0 mi SW 13.8 mph 23.0 mph N/A   Unknown
11:55 AM 69.8 °F 48.2 °F 46% 29.86 in 10.0 mi SSW 13.8 mph 23.0 mph N/A   Unknown
12:15 PM 71.6 °F 50.0 °F 46% 29.85 in 10.0 mi SW 12.7 mph 19.6 mph N/A   Unknown
12:35 PM 71.6 °F 50.0 °F 46% 29.84 in 10.0 mi SSW 13.8 mph 23.0 mph N/A   Unknown
12:55 PM 73.4 °F 50.0 °F 44% 29.83 in 10.0 mi SW 8.1 mph 17.3 mph N/A   Unknown
1:15 PM 73.4 °F 50.0 °F 44% 29.83 in 10.0 mi SSW 13.8 mph 21.9 mph N/A   Unknown
1:35 PM 77.0 °F 50.0 °F 39% 29.83 in 10.0 mi WSW 10.4 mph - N/A   Unknown
1:55 PM 73.4 °F 50.0 °F 44% 29.82 in 10.0 mi SSW 11.5 mph 17.3 mph N/A   Unknown
2:15 PM 75.2 °F 50.0 °F 41% 29.80 in 10.0 mi SW 9.2 mph - N/A   Unknown
2:35 PM 77.0 °F 51.8 °F 41% 29.80 in 10.0 mi SW 10.4 mph 18.4 mph N/A   Unknown
2:55 PM 77.0 °F 51.8 °F 41% 29.80 in 10.0 mi SW 9.2 mph 17.3 mph N/A   Unknown
3:15 PM 77.0 °F 50.0 °F 39% 29.79 in 10.0 mi SW 9.2 mph 18.4 mph N/A   Unknown
3:35 PM 77.0 °F 50.0 °F 39% 29.80 in 10.0 mi WSW 9.2 mph - N/A   Unknown
3:55 PM 77.0 °F 50.0 °F 39% 29.80 in 10.0 mi WSW 11.5 mph 17.3 mph N/A   Unknown
4:15 PM 77.0 °F 50.0 °F 39% 29.80 in 10.0 mi WSW 3.5 mph - N/A   Unknown
4:35 PM 77.0 °F 50.0 °F 39% 29.79 in 10.0 mi WSW 4.6 mph - N/A   Unknown
4:55 PM 77.0 °F 51.8 °F 41% 29.79 in 10.0 mi West 4.6 mph - N/A   Unknown
5:15 PM 77.0 °F 50.0 °F 39% 29.78 in 10.0 mi West 4.6 mph - N/A   Unknown
5:35 PM 77.0 °F 50.0 °F 39% 29.79 in 10.0 mi West 3.5 mph - N/A   Unknown
5:55 PM 77.0 °F 50.0 °F 39% 29.79 in 10.0 mi NNW 5.8 mph - N/A   Unknown
6:15 PM 77.0 °F 50.0 °F 39% 29.80 in 10.0 mi NNW 5.8 mph - N/A   Unknown
6:35 PM 73.4 °F 50.0 °F 44% 29.81 in 10.0 mi NW 3.5 mph - N/A   Unknown
6:55 PM 73.4 °F 50.0 °F 44% 29.81 in 10.0 mi NW 4.6 mph - N/A   Unknown
7:15 PM 73.4 °F 50.0 °F 44% 29.82 in 10.0 mi NNW 3.5 mph - N/A   Unknown
7:35 PM 71.6 °F 50.0 °F 46% 29.83 in 10.0 mi Calm Calm - N/A   Unknown
7:55 PM 71.6 °F 50.0 °F 46% 29.84 in 10.0 mi Calm Calm - N/A   Unknown
8:15 PM 69.8 °F 50.0 °F 49% 29.85 in 10.0 mi Calm Calm - N/A   Unknown
8:35 PM 69.8 °F 50.0 °F 49% 29.85 in 10.0 mi Calm Calm - N/A   Unknown
8:55 PM 69.8 °F 50.0 °F 49% 29.86 in 10.0 mi Calm Calm - N/A   Unknown
9:15 PM 69.8 °F 50.0 °F 49% 29.87 in 10.0 mi NNE 3.5 mph - N/A   Unknown
9:35 PM 69.8 °F 46.4 °F 43% 29.88 in 10.0 mi North 3.5 mph - N/A   Unknown
9:55 PM 68.0 °F 41.0 °F 37% 29.89 in 10.0 mi North 6.9 mph - N/A   Unknown
10:15 PM 68.0 °F 39.2 °F 35% 29.90 in 10.0 mi NNE 9.2 mph - N/A   Unknown
10:35 PM 68.0 °F 35.6 °F 30% 29.91 in 10.0 mi NNE 10.4 mph 17.3 mph N/A   Unknown
10:55 PM 68.0 °F 33.8 °F 28% 29.92 in 10.0 mi NNE 9.2 mph - N/A   Unknown
11:15 PM 66.2 °F 33.8 °F 30% 29.94 in 10.0 mi NNE 11.5 mph 17.3 mph N/A   Unknown
11:35 PM 66.2 °F 33.8 °F 30% 29.95 in 10.0 mi NE 12.7 mph 21.9 mph N/A   Unknown
11:55 PM 64.4 °F 33.8 °F 32% 29.96 in 10.0 mi NE 11.5 mph 18.4 mph N/A   Unknown